Home   Weather   Portsmouth   Past weeks
Flag for United Kingdom

Past Weather in Portsmouth, England, United Kingdom — Yesterday and Last 2 Weeks

Now
68 °F

Sunny.


Feels Like: 68 °F
Forecast: 58 / 51 °F
Wind: 3 mph from North

Location: Southampton / Weather Centre

Current Time: Apr 23, 2019 at 5:18:17 pm

Latest Report: Apr 23, 2019 at 4:50 pm


Visibility: 10 mi

Pressure: 29.36 "Hg

Humidity: 49%

Dew Point: 48 °F

Location of PortsmouthLocation

Past Weather in Portsmouth — Graph

°F

Portsmouth Temperature Yesterday

Maximum temperature yesterday: 68 °F (at 12:50 pm)
Minimum temperature yesterday: 37 °F (at 5:50 am)
Average temperature yesterday: 58 °F

High & Low Weather Summary for the Past Weeks

 TemperatureHumidityPressure
High73 °F (Apr 20, 2:50 pm)93% (Apr 9, 5:50 am)30.45 "Hg (Apr 9, 5:50 am)
Low30 °F (Apr 11, 6:50 am)33% (Apr 20, 3:20 pm)29.36 "Hg (Apr 23, 4:20 pm)
Average52 °F62%30.10 "Hg
* Reported Apr 8 4:20 pm — Apr 23 4:20 pm, Portsmouth. Weather by CustomWeather, © 2019

Note: Actual official high and low records may vary slightly from our data, if they occured in-between our weather recording intervals... More about our weather records

Advertising

Portsmouth Weather History for the Previous 24 Hours

Scroll right to see more
 ConditionsComfort  
Time TempWeatherWind HumidityBarometerVisibility
4:20 pm
Tue, Apr 23
70 °FSunny.3 mph46%29.36 "Hg10 mi
3:50 pm68 °FSunny.3 mph49%29.39 "Hg10 mi
3:20 pm68 °FSunny.3 mph49%29.39 "Hg10 mi
2:50 pm68 °FSunny.5 mph46%29.39 "Hg10 mi
2:20 pm68 °FPassing clouds.5 mph53%29.39 "HgN/A
1:50 pm68 °FPassing clouds.5 mph49%29.42 "HgN/A
1:20 pm68 °FSunny.1 mph49%29.42 "Hg10 mi
12:50 pm68 °FSunny.2 mph46%29.42 "Hg10 mi
12:20 pm66 °FSunny.3 mph46%29.42 "Hg10 mi
11:50 am66 °FSunny.1 mph49%29.42 "Hg10 mi
11:20 am64 °FSunny.1 mph49%29.42 "Hg10 mi
10:50 am64 °FSunny.2 mph52%29.45 "Hg10 mi
10:20 am63 °FClear.1 mph59%29.45 "Hg6 mi
9:50 am61 °FClear.2 mph59%29.45 "Hg6 mi
9:20 am59 °FClear.3 mph63%29.45 "Hg6 mi
8:50 am57 °FClear.2 mph67%29.45 "Hg6 mi
8:20 am54 °FPassing clouds.No wind82%29.45 "Hg6 mi
7:50 am52 °FPassing clouds.No wind82%29.45 "Hg6 mi
7:20 am48 °FPassing clouds.No wind87%29.45 "Hg6 mi
6:50 am48 °FClear.No wind82%29.45 "Hg6 mi
6:20 am48 °FClear.2 mph82%29.45 "Hg6 mi
5:50 am48 °FClear.5 mph82%29.45 "Hg6 mi
10:20 pm
Mon, Apr 22
55 °FClear.1 mph67%29.56 "Hg10 mi
9:50 pm55 °FClear.No wind67%29.59 "Hg10 mi
9:20 pm55 °FClear.1 mph67%29.59 "Hg10 mi
8:50 pm55 °FClear.2 mph67%29.59 "Hg10 mi
8:20 pm55 °FClear.1 mph63%29.59 "Hg10 mi
7:50 pm57 °FSunny.No wind59%29.59 "Hg10 mi
7:20 pm57 °FSunny.3 mph59%29.59 "Hg10 mi
6:50 pm59 °FPassing clouds.6 mph55%29.59 "HgN/A
6:20 pm61 °FPassing clouds.6 mph48%29.59 "HgN/A
5:50 pm63 °FPassing clouds.3 mph49%29.59 "HgN/A
5:20 pm63 °FPassing clouds.6 mph49%29.59 "HgN/A
Weather by CustomWeather, © 2019

See weather overview